TimeCDT,TemperatureF,Dew PointF,Humidity,Sea Level PressureIn,VisibilityMPH,Wind Direction,Wind SpeedMPH,Gust SpeedMPH,PrecipitationIn,Events,Conditions,WindDirDegrees,DateUTC
12:15 AM,77.0,60.8,57,30.07,10.0,Calm,Calm,-,N/A,,Clear,0,2013-09-05 05:15:00
12:35 AM,78.8,60.8,54,30.07,10.0,Calm,Calm,-,N/A,,Clear,0,2013-09-05 05:35:00
12:55 AM,77.0,60.8,57,30.08,10.0,NE,5.8,-,N/A,,Clear,50,2013-09-05 05:55:00
1:15 AM,77.0,60.8,57,30.08,10.0,ENE,5.8,-,N/A,,Clear,70,2013-09-05 06:15:00
1:35 AM,77.0,60.8,57,30.08,10.0,ENE,5.8,-,N/A,,Clear,70,2013-09-05 06:35:00
1:55 AM,75.2,60.8,61,30.08,10.0,ENE,4.6,-,N/A,,Clear,70,2013-09-05 06:55:00
2:15 AM,75.2,60.8,61,30.08,10.0,ENE,4.6,-,N/A,,Clear,70,2013-09-05 07:15:00
2:35 AM,73.4,60.8,65,30.08,10.0,East,3.5,-,N/A,,Clear,100,2013-09-05 07:35:00
2:55 AM,73.4,60.8,65,30.08,10.0,Calm,Calm,-,N/A,,Clear,0,2013-09-05 07:55:00
3:15 AM,73.4,60.8,65,30.08,10.0,SE,3.5,-,N/A,,Clear,130,2013-09-05 08:15:00
3:35 AM,73.4,60.8,65,30.08,10.0,East,3.5,-,N/A,,Clear,100,2013-09-05 08:35:00
3:55 AM,73.4,60.8,65,30.08,10.0,ESE,3.5,-,N/A,,Clear,110,2013-09-05 08:55:00
4:15 AM,73.4,60.8,65,30.08,10.0,Calm,Calm,-,N/A,,Clear,0,2013-09-05 09:15:00
4:35 AM,71.6,60.8,69,30.08,10.0,Calm,Calm,-,N/A,,Clear,0,2013-09-05 09:35:00
4:55 AM,71.6,60.8,69,30.08,10.0,East,3.5,-,N/A,,Clear,90,2013-09-05 09:55:00
5:15 AM,73.4,60.8,65,30.09,10.0,Calm,Calm,-,N/A,,Clear,0,2013-09-05 10:15:00
5:35 AM,71.6,59.0,64,30.09,10.0,ENE,3.5,-,N/A,,Clear,70,2013-09-05 10:35:00
5:55 AM,71.6,59.0,64,30.09,10.0,Calm,Calm,-,N/A,,Clear,0,2013-09-05 10:55:00
6:15 AM,71.6,59.0,64,30.09,10.0,Calm,Calm,-,N/A,,Clear,0,2013-09-05 11:15:00
6:35 AM,71.6,59.0,64,30.10,10.0,Calm,Calm,-,N/A,,Clear,0,2013-09-05 11:35:00
6:55 AM,71.6,59.0,64,30.10,10.0,Calm,Calm,-,N/A,,Clear,0,2013-09-05 11:55:00
7:15 AM,71.6,59.0,64,30.11,10.0,ESE,3.5,-,N/A,,Clear,110,2013-09-05 12:15:00
7:35 AM,71.6,59.0,64,30.11,10.0,East,3.5,-,N/A,,Clear,80,2013-09-05 12:35:00
7:55 AM,73.4,59.0,61,30.12,10.0,ESE,3.5,-,N/A,,Clear,110,2013-09-05 12:55:00
8:15 AM,73.4,59.0,61,30.12,10.0,SE,3.5,-,N/A,,Clear,130,2013-09-05 13:15:00
8:35 AM,75.2,59.0,57,30.12,10.0,SE,5.8,-,N/A,,Clear,130,2013-09-05 13:35:00
8:55 AM,77.0,59.0,54,30.13,10.0,SE,5.8,-,N/A,,Clear,140,2013-09-05 13:55:00
9:15 AM,77.0,59.0,54,30.13,10.0,SE,8.1,-,N/A,,Clear,140,2013-09-05 14:15:00
9:35 AM,78.8,60.8,54,30.13,10.0,SE,5.8,-,N/A,,Clear,140,2013-09-05 14:35:00
9:55 AM,80.6,60.8,51,30.13,10.0,SSE,6.9,-,N/A,,Clear,160,2013-09-05 14:55:00
10:15 AM,80.6,60.8,51,30.14,10.0,SSE,6.9,-,N/A,,Clear,150,2013-09-05 15:15:00
10:35 AM,82.4,60.8,48,30.14,10.0,SSE,4.6,-,N/A,,Clear,150,2013-09-05 15:35:00
10:55 AM,84.2,62.6,48,30.14,10.0,SSE,4.6,-,N/A,,Clear,150,2013-09-05 15:55:00
11:15 AM,86.0,62.6,45,30.13,10.0,South,5.8,-,N/A,,Clear,180,2013-09-05 16:15:00
11:35 AM,87.8,62.6,43,30.13,10.0,SSE,4.6,-,N/A,,Clear,160,2013-09-05 16:35:00
11:55 AM,89.6,62.6,40,30.13,10.0,East,5.8,-,N/A,,Clear,100,2013-09-05 16:55:00
12:15 PM,89.6,62.6,40,30.13,10.0,East,6.9,-,N/A,,Clear,100,2013-09-05 17:15:00
12:35 PM,91.4,62.6,38,30.12,10.0,SE,6.9,-,N/A,,Clear,130,2013-09-05 17:35:00
12:55 PM,91.4,62.6,38,30.11,10.0,SSE,5.8,-,N/A,,Clear,160,2013-09-05 17:55:00
1:15 PM,93.2,60.8,34,30.10,10.0,SE,5.8,-,N/A,,Scattered Clouds,140,2013-09-05 18:15:00
1:35 PM,93.2,59.0,32,30.10,10.0,SW,3.5,-,N/A,,Mostly Cloudy,230,2013-09-05 18:35:00
1:55 PM,93.2,53.6,26,30.09,10.0,SW,4.6,-,N/A,,Scattered Clouds,220,2013-09-05 18:55:00
2:15 PM,91.4,53.6,28,30.09,10.0,Calm,Calm,-,N/A,,Scattered Clouds,0,2013-09-05 19:15:00
2:35 PM,95.0,57.2,28,30.08,10.0,ESE,3.5,-,N/A,,Mostly Cloudy,120,2013-09-05 19:35:00
2:55 PM,95.0,57.2,28,30.07,10.0,Calm,Calm,-,N/A,,Mostly Cloudy,0,2013-09-05 19:55:00
3:15 PM,95.0,55.4,26,30.07,10.0,NE,4.6,-,N/A,,Scattered Clouds,40,2013-09-05 20:15:00
3:35 PM,95.0,55.4,26,30.06,10.0,NE,8.1,-,N/A,,Scattered Clouds,50,2013-09-05 20:35:00
3:55 PM,95.0,55.4,26,30.06,10.0,ENE,6.9,-,N/A,,Scattered Clouds,60,2013-09-05 20:55:00
4:15 PM,95.0,53.6,25,30.05,10.0,East,4.6,-,N/A,,Clear,100,2013-09-05 21:15:00
4:35 PM,95.0,53.6,25,30.05,10.0,East,5.8,-,N/A,,Scattered Clouds,90,2013-09-05 21:35:00
4:55 PM,95.0,53.6,25,30.05,10.0,SE,8.1,-,N/A,,Scattered Clouds,130,2013-09-05 21:55:00
5:15 PM,95.0,53.6,25,30.04,10.0,ESE,4.6,-,N/A,,Clear,120,2013-09-05 22:15:00
5:35 PM,95.0,53.6,25,30.03,10.0,ESE,8.1,-,N/A,,Clear,120,2013-09-05 22:35:00
5:55 PM,95.0,53.6,25,30.03,10.0,East,6.9,-,N/A,,Unknown,90,2013-09-05 22:55:00
6:15 PM,95.0,55.4,26,30.03,10.0,East,9.2,-,N/A,,Clear,90,2013-09-05 23:15:00
6:35 PM,93.2,55.4,28,30.03,10.0,East,8.1,-,N/A,,Clear,100,2013-09-05 23:35:00
6:55 PM,93.2,53.6,26,30.03,10.0,East,4.6,-,N/A,,Clear,100,2013-09-05 23:55:00
7:15 PM,91.4,55.4,29,30.03,10.0,East,5.8,-,N/A,,Clear,90,2013-09-06 00:15:00
7:35 PM,89.6,55.4,31,30.03,10.0,Calm,Calm,-,N/A,,Clear,0,2013-09-06 00:35:00
7:55 PM,87.8,55.4,33,30.04,10.0,Calm,Calm,-,N/A,,Clear,0,2013-09-06 00:55:00
8:15 PM,87.8,57.2,35,30.04,10.0,Calm,Calm,-,N/A,,Clear,0,2013-09-06 01:15:00
8:35 PM,86.0,59.0,40,30.05,10.0,Calm,Calm,-,N/A,,Clear,0,2013-09-06 01:35:00
8:55 PM,82.4,59.0,45,30.06,10.0,Calm,Calm,-,N/A,,Clear,0,2013-09-06 01:55:00
9:15 PM,80.6,59.0,48,30.06,10.0,Calm,Calm,-,N/A,,Clear,0,2013-09-06 02:15:00
9:35 PM,80.6,59.0,48,30.07,10.0,Calm,Calm,-,N/A,,Clear,0,2013-09-06 02:35:00
9:55 PM,78.8,59.0,51,30.07,10.0,Calm,Calm,-,N/A,,Clear,0,2013-09-06 02:55:00
10:15 PM,80.6,59.0,48,30.08,10.0,Calm,Calm,-,N/A,,Clear,0,2013-09-06 03:15:00
10:35 PM,80.6,59.0,48,30.08,10.0,Calm,Calm,-,N/A,,Clear,0,2013-09-06 03:35:00
10:55 PM,77.0,60.8,57,30.08,10.0,Calm,Calm,-,N/A,,Clear,0,2013-09-06 03:55:00
11:15 PM,77.0,59.0,54,30.09,10.0,NNE,3.5,-,N/A,,Clear,30,2013-09-06 04:15:00
11:35 PM,80.6,59.0,48,30.10,10.0,East,4.6,-,N/A,,Clear,80,2013-09-06 04:35:00
11:55 PM,78.8,59.0,51,30.09,10.0,ENE,4.6,-,N/A,,Clear,70,2013-09-06 04:55:00